BEIDOU-2 G6 (38953 NORAD) Tracking and Keplerian Element Data

This shows tracking and keplerian element data for the satellite.

Feedback or suggestion? Click here.




ElementValue
Catalog38953
NameBEIDOU-2 G6
Epoch Orbit4491
Epoch Day34.83725161
Epoch Year2025
RAAN78.6086
Inclination3.1513
Eccentricity0.0009366
Argument of Perigee291.8459
Mean Anonmoly149.1889
Mean Motion1.00273057
Decay Rate-1.73E-06
L11 38953U 12059A 25034.83725161 -.00000173 00000+0 00000+0 0 9992
L22 38953 3.1513 78.6086 0009366 291.8459 149.1889 1.00273057 44913



Live tracking and technical data element details for BEIDOU-2 G6 (NORAD 38953). BEIDOU-2 G6 can be tracked NOW for your location showing map with azimuth and elevation plus other details from your city location.







IsCatalogInMostPopularTable: catalog: 38953, numindb: 486
Update: records affected: 1



GetName: 38953 BEIDOU-2 G6

Hit Count: updated at: Thu, 15 May 2025 09:30:15 GMT